Regional Weather Roundup
Issued by NWS Grand Forks, ND

Home | Current Version | Previous Version | Text Only | Print | Product List | Glossary On
Versions: 1 2 3 4 5 6 7 8 9 10 11 12 13 14 15 16 17 18 19 20 21 22 23 24 25 26 27 28 29 30 31 32 33 34 35 36 37 38 39 40 41 42 43 44 45 46 47 48 49 50
000
ASUS43 KFGF 272310
RWRFGF
PRAIRIE TO PINES  WEATHER ROUNDUP
NATIONAL WEATHER SERVICE EASTERN NORTH DAKOTA/GRAND FORKS ND
600 PM CDT THU JUL 27 2017

 **SATELLITE DATA USED TO AUGMENT SKY COVER AT AUTOMATED STATIONS**
 *****  WEATHER ACROSS EASTERN NORTH DAKOTA  *****

CITY           SKY/WX    TMP DP  RH WIND       PRES   REMARKS
GRAND FORKS    PTSUNNY   86  59  39 CALM      30.06R
GRAND FRKS AFB FAIR      84  55  37 CALM      30.07S
DEVILS LAKE    FAIR      81  53  37 S10       30.09F
FARGO          FAIR      84  56  38 NE7       30.06S
WAHPETON ARPT  FAIR      79  61  53 CALM      30.07S
$$

 ***** WEATHER ACROSS CENTRAL AND WESTERN NORTH DAKOTA  *****

CITY           SKY/WX    TMP DP  RH WIND       PRES   REMARKS
BISMARCK       FAIR      82  59  45 NE9       30.06F
MINOT          FAIR      85  56  37 SE8       30.04F
JAMESTOWN      FAIR      80  59  48 E5        30.08F
MINOT AFB      FAIR      83  57  40 SE7G16    30.02F
GARRISON         N/A     74  59  59 SE14      30.05F
WILLISTON      FAIR      76  65  68 E12       30.00F
DICKINSON      LGT RAIN  70  62  76 NW7       30.06R
HETTINGER      CLOUDY    73  56  54 S9        30.07F
$$

 *****  OTHER AIRPORT OBSERVATIONS IN OUR AREA  *****

CITY           SKY/WX    TMP DP  RH WIND       PRES   REMARKS
WALHALLA       NOT AVBL
GRAFTON AIRPOR FAIR      81  63  54 CALM      30.08S
VALLEY CITY AR FAIR      81  59  47 SE6       30.10S
CANDO          NOT AVBL
CAVALIER APRT  FAIR      82  63  51 CALM      30.06S
GWINNER        CLEAR     81  57  44 CALM      30.08S
SHEYENNE NWR     N/A     85  59  41 CALM      29.95S
ROLLA            N/A     77  57  50 S7        30.10F
 ***** THE ABOVE OBSERVATIONS ARE NON NWS ARE NOT QUALITY
       CONTROLLED AND MAY MIS-REPORT RAIN FOR SNOW...
$$

  *****  WEATHER ACROSS NORTHERN MINNESOTA  *****

CITY           SKY/WX    TMP DP  RH WIND       PRES   REMARKS
FLAG ISLAND    FAIR      79  63  57 CALM      30.06F
WARROAD        FAIR      73  66  78 CALM      30.07F
ROSEAU         FAIR      81  63  54 CALM      30.06F
HALLOCK        FAIR      82  54  36 CALM      30.06R
THF RVR FALLS  FAIR      80  61  52 W5        30.09S
BAUDETTE       FAIR      81  56  42 N9        30.07F
WASKISH        PTSUNNY   75  64  69 W8        30.08F
CROOKSTON      FAIR      82  61  47 CALM      30.08R
STEPHEN NDAWN    N/A     82  59  44 NW5         N/A
GREENBUSH NDAW   N/A     82  61  47 N3          N/A
$$
  *****  WEATHER ACROSS CENTRAL AND WEST MINNESOTA  *****

CITY           SKY/WX    TMP DP  RH WIND       PRES   REMARKS
FOSSTON        FAIR      79  64  61 CALM      30.10S
BEMIDJI        FAIR      75  60  60 N9G16     30.09S
PARK RAPIDS    FAIR      82  57  42 NW7       30.07F
ELBOW LAKE     FAIR      79  60  52 E6        30.07F HAZE
WADENA         FAIR      81  59  47 NE7       30.07F
DETROIT LAKES  FAIR      79  59  50 N6        30.10F
MOORHEAD       FAIR      82  55  39 CALM      30.07S
FERGUS FALLS   FAIR      81  61  50 N3        30.06S
MORRIS MN      FAIR      84  57  39 N5        30.06S
STAPLES        FAIR      81  55  41 N7        30.07S
$$
  *****  WEATHER ELSEWHERE ACROSS MINNESOTA  *****

CITY           SKY/WX    TMP DP  RH WIND       PRES   REMARKS
DULUTH         FAIR      75  60  59 SE9       30.06F
INTRNTL FALLS  FAIR      77  59  53 NE3       30.06S
ELY            PTSUNNY   72  57  60 E7        30.08R
CLOQUET        FAIR      75  55  50 E5        30.06F
WHEATON        FAIR      81  57  44 N5        30.08S
BRAINERD       FAIR      79  58  48 NW5       30.06F
HIBBING        FAIR      80  53  39 N6        30.05F
ALEXANDRIA     FAIR      81  59  47 N5        30.09S
SAINT CLOUD    FAIR      82  59  45 VRB6      30.04F
MINNEAPOLIS    FAIR      84  56  38 N9        30.02F
$$

  *****  WEATHER ACROSS SOUTH DAKOTA  *****

CITY           SKY/WX    TMP DP  RH WIND       PRES   REMARKS
SIOUX FALLS    FAIR      81  62  52 NE9       30.06S
BROOKINGS      FAIR      80  60  50 NE8       30.08F
WATERTOWN      FAIR      79  59  50 NE5       30.07F
HURON          FAIR      82  61  48 E6        30.05F
SISSETON         N/A     81  58  45 SE3       30.06S
ABERDEEN       FAIR      83  59  44 E9        30.06F
MITCHELL       FAIR      84  62  47 NE6       30.05F
PIERRE         FAIR      86  56  35 E13       30.02F
MOBRIDGE       FAIR      84  61  45 E14       30.03F
RAPID CITY     FAIR      80  48  32 SE18      30.06F
$$

  *****  SOME WEATHER IN NEARBY STATES *****

CITY           SKY/WX    TMP DP  RH WIND       PRES   REMARKS
GLASGOW MT     FAIR      92  54  27 MISG      29.92F HX  90
GREAT FALLS MT FAIR      89  36  15 NE10      29.97F
CHEYENNE WY    FAIR      82  57  42 SW17      30.18F
SCOTTSBLUFF NE FAIR      90  59  35 SE15G23   30.00F
OMAHA NE       PTSUNNY   85  62  46 N10       30.00F
DES MOINES IA  FAIR      85  59  41 NE15G21   29.97F
DAVENPORT IA   FAIR      79  68  69 NE13      29.95F
CHICAGO IL     FAIR      79  56  45 N17       29.94S
EAU CLAIRE WI  FAIR      82  60  47 N8        30.01S
LA CROSSE WI   FAIR      86  63  45 NE6       29.98F
$$

  *****  SOME NATIONAL WEATHER *****

CITY           SKY/WX    TMP DP  RH WIND       PRES   REMARKS
LA GUARDIA NY  CLOUDY    77  71  82 S7        29.89S
RALEIGH NC     CLOUDY    87  70  56 SW6       29.93F HX  92
ATLANTA GA     CLOUDY    76  73  91 S5        29.98F
NEW ORLEANS LA FAIR      94  67  41 N6        29.96F HX  97
OKLAHOMA CITY  PTSUNNY   96  65  35 W8        29.89F THUNDER HX  98
ALBUQUERQUE NM FAIR      88  53  30 SW9       30.11F
SALT LAKE CITY FAIR      91  54  28 N10       30.08F
LOS ANGELES CA PTSUNNY   74  65  73 W17       29.90F
BOISE ID       FAIR      92  47  21 W10       30.01F
SEATTLE WA     FAIR      68  54  60 W8        30.16F
$$

*** WEATHER ACROSS MANITOBA...SASKATCHEWAN AND ONTARIO ***
                ***ONTARIO***

CITY           SKY/WX    TMP DP  RH WIND       PRES   REMARKS
GERALDTON      MOSUNNY   73  48  40 NW7       30.07F
THUNDER BAY    PTSUNNY   70  55  60 S9        30.05S
SIOUX LOOKOUT  MOSUNNY   79  52  38 N7        30.07S
TORONTO        MOSUNNY   79  61  53 N14G20    29.87S
BIG TROUT LK   MOSUNNY   75  54  46 S6        30.01F
PICKLE LAKE    MOSUNNY   79  45  29 CALM      30.06F
DRYDEN         SUNNY     77  54  44 N3        30.07F
KENORA         MOSUNNY   81  54  39 NW5       30.08F
$$
                *** MANITOBA***

CITY           SKY/WX    TMP DP  RH WIND       PRES   REMARKS
BRANDON        MOSUNNY   82  57  42 S6        30.05F
DAUPHIN        SUNNY     82  64  54 E8        30.02F
ISLAND LAKE    NOT AVBL
PILOT MOUND      N/A     77  59  53 S10         N/A
THE PAS        MOSUNNY   88  55  33 SE8       29.94F
THOMPSON       MOSUNNY   86  52  30 SW8G18    29.90F
WINNIPEG       MOSUNNY   82  63  51 NW3       30.05F
LYNN LAKE      MOSUNNY   84  52  32 SW10G21   29.87F
CHURCHILL      PTSUNNY   64  54  68 E16G22    29.92F
GILLAM         CLOUDY    79  63  57 NW3       29.90F
$$
                ***SASKATCHEWAN***

CITY           SKY/WX    TMP DP  RH WIND       PRES   REMARKS
ESTEVAN        CLOUDY    79  59  50 S5        30.03F
KINDERSLEY     MOSUNNY   91  48  22 SE21G31   29.87F
LLOYDMINSTER   MOSUNNY   86  66  51 SE15G23   29.83F
PRINCE ALBERT  PTSUNNY   82  64  54 S9        29.94F
REGINA         PTSUNNY   90  48  24 S6        29.97F
YORKTON        SUNNY     82  54  36 E10       30.03S
N. BATTLEFORD  SUNNY     90  59  35 S14G21    29.89F
LA RONGE       MOSUNNY   84  55  37 SE8       29.88F
SASKATOON      PTSUNNY   91  50  24 SE16G26   29.93F
SWIFT CURRENT  SUNNY     90  54  29 SE13      29.94F
$$
NOTE: THESE ARE AUTOMATED STATIONS WITH LIMITED QUALITY CONTROL
      "FAIR" INDICATES FEW OR NO CLOUDS BELOW 12,000 FEET WITH NO
      SIGNIFICANT WEATHER AND/OR OBSTRUCTIONS TO VISIBILITY.
      SKY/WX - SKY CONDITION AND SIGNIFICANT WEATHER.
      TMP - AIR TEMPERATURE.    DP   - DEWPOINT TEMPERATURE.
      RH  - RELATIVE HUMIDITY.  PRES - PRESSURE.
      HX  - HEAT INDEX.         WCI  - WIND CHILL INDEX.
$



USA.gov is the U.S. government's official web portal to all federal, state and local government web resources and services.